Flag for Germany Weather past 2 weeks in Norden, Lower Saxony, Germany

Now
55 °F

Low clouds.


Feels Like: 53 °F
Forecast: 50 / 58 °F
Wind: 8 mph from South

Location: Norderney

Current Time: Oct 21, 2014 at 9:21:07 AM

Latest Report: Oct 21, 2014 at 9:00 AM


Visibility: 4 mi

Pressure: 29.60 "Hg

Humidity: 93%

Dew point: 53 °F

Location of NordenLocation

Historic Weather in Norden — Graph

°F

Norden temperature yesterday

Maximum temperature yesterday: 60 °F (at 1:00 AM)
Minimum temperature yesterday: 54 °F (at 9:00 PM)
Average temperature yesterday: 58 °F

Past Weeks' High & Low Weather Summary

 TemperatureHumidityPressure
High64 °F (Oct 18, 4:00 PM)100% (Oct 16, 6:00 AM)30.05 "Hg (Oct 16, 6:00 AM)
Low49 °F (Oct 8, 9:00 AM)59% (Oct 6, 4:00 PM)29.38 "Hg (Oct 7, 2:00 PM)
Average57 °F86%29.77 "Hg
* Reported Oct 6 8:00 AM — Oct 21 8:00 AM, Norden, Weather by CustomWeather, © 2014

Note: Actual official high and low records may vary slightly from our data, if they occured in-between our weather recording intervals... More about our weather records

Advertising

Norden weather history for previous 24 hours

 ConditionsComfort  
Time TempWeatherWind HumidityBarometerVisibility
8:00 AM
Oct 21
55 °FLight freezing rain. Low clouds.6 mph95%29.63 "Hg2 mi
7:00 AM55 °FLow clouds.7 mph95%29.66 "Hg4 mi
6:00 AM55 °FLow clouds.6 mph94%29.69 "Hg5 mi
5:00 AM55 °FOvercast.6 mph90%29.72 "Hg9 mi
4:00 AM56 °FOvercast.6 mph89%29.75 "Hg11 mi
3:00 AM56 °FOvercast.7 mph89%29.76 "Hg12 mi
2:00 AM55 °FOvercast.6 mph90%29.78 "Hg13 mi
1:00 AM56 °FOvercast.7 mph86%29.80 "Hg14 mi
12:00 AM55 °FOvercast.6 mph88%29.81 "Hg12 mi
11:00 PM
Oct 20
56 °FOvercast.8 mph80%29.83 "Hg7 mi
10:00 PM56 °FOvercast.9 mph83%29.84 "Hg6 mi
9:00 PM54 °FLight rain. Overcast.7 mph85%29.85 "Hg4 mi
8:00 PM56 °FLight rain. Overcast.9 mph82%29.85 "Hg4 mi
7:00 PM57 °FOvercast.8 mph81%29.85 "Hg9 mi
6:00 PM58 °FPassing clouds.7 mph80%29.85 "Hg9 mi
5:00 PM58 °FOvercast.7 mph82%29.87 "Hg7 mi
4:00 PM59 °FOvercast.8 mph77%29.89 "Hg9 mi
3:00 PM59 °FPartly sunny.8 mph75%29.89 "Hg2 mi
2:00 PM59 °FOvercast.9 mph75%29.90 "Hg10 mi
1:00 PM58 °FLight rain. Overcast.10 mph75%29.90 "Hg4 mi
12:00 PM59 °FScattered clouds.10 mph77%29.90 "Hg4 mi
11:00 AM59 °FPassing clouds.10 mph76%29.89 "Hg7 mi
10:00 AM58 °FOvercast.10 mph79%29.87 "Hg6 mi
9:00 AM58 °FOvercast.13 mph77%29.86 "Hg5 mi
Weather by CustomWeather, © 2014

See weather overviewHow to use our weather pages